Location: Les Moreaux
(47.2278°N, 1.4966°E)
Time: 20:22:26
(UTC+00:00)

COSMOS 2406 - Pass Details

Date: 19 May 2025
Orbit: 845 x 859 km, 71.0° (Epoch: 20 June)

Event Time Altitude Azimuth Distance (km) Brightness Sun altitude
Exits shadow 23:41:06 19° 244° (WSW) 1,936 4.8 -22.7°
Maximum altitude 23:44:51 41° 306° (NW) 1,214 4.2 -22.8°
Drops below altitude 10° 23:50:15 10° 16° (NNE) 2,491 6.7 -22.8°
Sets 23:52:52 0° 24° (NNE) 3,433 7.5 -22.8°
